1998-067LH

Last updated on Thu May 25 2017 00:15:03 GMT+0000 (Coordinated Universal Time)

1 42700U 98067LH 17144.57279000 .00012320 00000-0 18648-3 0 9998 2 42700 51.6401 155.9428 0006084 231.7478 212.1364 15.55075742 1276
UTC large
Height (km)
Speed (km/s)
/
Latitude / Longitude
Inclination (degrees)
Orbital Period (minutes)
Azimuth
Elevation
Range (km)
Doppler Factor

Next 0 passes for location: London (51.5072 / 0.1276)

Sorry there are no passes over London.